| time (UTC) | temp F | wind direction | speed MPH | gust MPH | rain 1hr in | rain 24hr in | rain mn in | humidity % | barometer mb |
| 20260509095024 | 47 | 223 | 1.0 | 3.0 | 0.00 | 0.00 | 0.00 | 90 | 1007.5 |
| 20260509094543 | 48 | 224 | 1.0 | 3.0 | 0.00 | 0.00 | 0.00 | 90 | 1007.5 |
| 20260509094021 | 48 | 224 | 0.0 | 3.0 | 0.00 | 0.00 | 0.00 | 90 | 1007.5 |
| 20260509093521 | 48 | 0 | 1.0 | 3.0 | 0.00 | 0.00 | 0.00 | 90 | 1007.6 |
| 20260509093040 | 48 | 223 | 1.0 | 3.0 | 0.00 | 0.00 | 0.00 | 90 | 1007.5 |
| 20260509092521 | 48 | 223 | 2.0 | 4.0 | 0.00 | 0.00 | 0.00 | 90 | 1007.6 |
| 20260509092021 | 48 | 224 | 3.0 | 4.0 | 0.00 | 0.00 | 0.00 | 90 | 1007.6 |
| 20260509091547 | 49 | 223 | 2.0 | 4.0 | 0.00 | 0.00 | 0.00 | 90 | 1007.6 |
| 20260509091023 | 49 | 223 | 2.0 | 4.0 | 0.00 | 0.00 | 0.00 | 90 | 1007.7 |
| 20260509090521 | 49 | 223 | 2.0 | 3.0 | 0.00 | 0.00 | 0.00 | 90 | 1007.7 |
| 20260509090051 | 49 | 224 | 2.0 | 4.0 | 0.00 | 0.00 | 0.00 | 90 | 1007.6 |
| 20260509085521 | 48 | 224 | 1.0 | 4.0 | 0.00 | 0.00 | 0.00 | 90 | 1007.6 |
| 20260509085020 | 48 | 227 | 2.0 | 4.0 | 0.00 | 0.00 | 0.00 | 90 | 1007.5 |
| 20260509084541 | 48 | 236 | 2.0 | 4.0 | 0.00 | 0.00 | 0.00 | 90 | 1007.5 |
| 20260509084022 | 49 | 238 | 2.0 | 4.0 | 0.00 | 0.00 | 0.00 | 90 | 1007.6 |
| 20260509083521 | 49 | 229 | 2.0 | 4.0 | 0.00 | 0.00 | 0.00 | 90 | 1007.6 |
| 20260509083041 | 49 | 206 | 2.0 | 3.0 | 0.00 | 0.00 | 0.00 | 90 | 1007.7 |
| 20260509082521 | 49 | 205 | 2.0 | 3.0 | 0.00 | 0.00 | 0.00 | 90 | 1007.7 |
| 20260509082023 | 49 | 205 | 1.0 | 3.0 | 0.00 | 0.00 | 0.00 | 90 | 1007.7 |
| 20260509081538 | 48 | 205 | 1.0 | 4.0 | 0.00 | 0.00 | 0.00 | 90 | 1007.7 |
| 20260509081023 | 48 | 205 | 2.0 | 4.0 | 0.00 | 0.00 | 0.00 | 89 | 1007.7 |
| 20260509080524 | 48 | 204 | 3.0 | 4.0 | 0.00 | 0.00 | 0.00 | 89 | 1007.7 |
| 20260509080045 | 48 | 202 | 3.0 | 4.0 | 0.00 | 0.00 | 0.00 | 89 | 1007.6 |
| 20260509075521 | 49 | 215 | 3.0 | 4.0 | 0.00 | 0.00 | 0.00 | 89 | 1007.7 |
| 20260509075022 | 49 | 188 | 2.0 | 4.0 | 0.00 | 0.00 | 0.00 | 89 | 1007.8 |
| 20260509074553 | 49 | 188 | 2.0 | 4.0 | 0.00 | 0.00 | 0.00 | 89 | 1007.7 |
| 20260509074023 | 49 | 188 | 2.0 | 4.0 | 0.00 | 0.00 | 0.00 | 89 | 1007.6 |
| 20260509073522 | 49 | 196 | 3.0 | 4.0 | 0.00 | 0.00 | 0.00 | 89 | 1007.6 |
| 20260509073058 | 48 | 186 | 2.0 | 5.0 | 0.00 | 0.00 | 0.00 | 89 | 1007.6 |
| 20260509072521 | 48 | 204 | 3.0 | 5.0 | 0.00 | 0.00 | 0.00 | 88 | 1007.6 |
| 20260509072021 | 48 | 199 | 3.0 | 5.0 | 0.00 | 0.00 | 0.00 | 88 | 1007.7 |
| 20260509071542 | 48 | 197 | 3.0 | 5.0 | 0.00 | 0.00 | 0.00 | 87 | 1007.6 |
| 20260509071022 | 48 | 207 | 3.0 | 5.0 | 0.00 | 0.00 | 0.00 | 87 | 1007.5 |
| 20260509070522 | 48 | 217 | 3.0 | 5.0 | 0.00 | 0.00 | 0.00 | 86 | 1007.6 |
| 20260509070041 | 48 | 217 | 2.0 | 5.0 | 0.00 | 0.00 | 0.00 | 86 | 1007.7 |
| 20260509065521 | 48 | 209 | 3.0 | 6.0 | 0.00 | 0.00 | 0.00 | 86 | 1007.7 |
| 20260509065021 | 48 | 193 | 4.0 | 6.0 | 0.00 | 0.00 | 0.00 | 86 | 1007.7 |
| 20260509064539 | 48 | 180 | 3.0 | 7.0 | 0.00 | 0.00 | 0.00 | 85 | 1007.6 |
| 20260509064024 | 48 | 186 | 4.0 | 7.0 | 0.00 | 0.00 | 0.00 | 84 | 1007.6 |
| 20260509063522 | 48 | 197 | 4.0 | 5.0 | 0.00 | 0.00 | 0.00 | 84 | 1007.6 |
| 20260509063053 | 49 | 192 | 3.0 | 5.0 | 0.00 | 0.00 | 0.00 | 84 | 1007.7 |
| 20260509062526 | 49 | 171 | 4.0 | 5.0 | 0.00 | 0.00 | 0.00 | 84 | 1007.7 |
| 20260509062021 | 49 | 170 | 3.0 | 4.0 | 0.00 | 0.00 | 0.00 | 84 | 1007.6 |
| 20260509061538 | 49 | 170 | 3.0 | 4.0 | 0.00 | 0.00 | 0.00 | 84 | 1007.6 |
| 20260509061025 | 49 | 0 | 0.0 | 0.0 | 0.00 | 0.00 | 0.00 | 84 | 1007.5 |
| 20260509060524 | 50 | 0 | 0.0 | 2.0 | 0.00 | 0.00 | 0.00 | 84 | 1007.5 |
| 20260509060101 | 50 | 0 | 0.0 | 2.0 | 0.00 | 0.00 | 0.00 | 84 | 1007.4 |
| 20260509055521 | 50 | 171 | 1.0 | 4.0 | 0.00 | 0.00 | 0.00 | 83 | 1007.4 |
| 20260509055025 | 50 | 0 | 1.0 | 4.0 | 0.00 | 0.00 | 0.00 | 83 | 1007.5 |
| 20260509054539 | 50 | 171 | 1.0 | 4.0 | 0.00 | 0.00 | 0.00 | 83 | 1007.5 |
| 20260509054021 | 50 | 171 | 0.0 | 4.0 | 0.00 | 0.00 | 0.00 | 83 | 1007.6 |
| 20260509053522 | 51 | 171 | 1.0 | 4.0 | 0.00 | 0.00 | 0.00 | 83 | 1007.6 |
| 20260509053051 | 51 | 171 | 1.0 | 4.0 | 0.00 | 0.00 | 0.00 | 82 | 1007.7 |
| 20260509052522 | 51 | 171 | 0.0 | 2.0 | 0.00 | 0.00 | 0.00 | 83 | 1007.6 |
| 20260509052021 | 51 | 0 | 0.0 | 2.0 | 0.00 | 0.00 | 0.00 | 82 | 1007.7 |
| 20260509051538 | 51 | 171 | 1.0 | 2.0 | 0.00 | 0.00 | 0.00 | 82 | 1007.7 |
| 20260509051021 | 51 | 171 | 1.0 | 2.0 | 0.00 | 0.00 | 0.00 | 82 | 1007.8 |
| 20260509050521 | 51 | 170 | 1.0 | 2.0 | 0.00 | 0.00 | 0.00 | 81 | 1007.9 |
| 20260509050037 | 52 | 170 | 0.0 | 3.0 | 0.00 | 0.00 | 0.00 | 81 | 1007.8 |
| 20260509045526 | 52 | 170 | 1.0 | 4.0 | 0.00 | 0.00 | 0.00 | 81 | 1007.9 |
| 20260509045022 | 52 | 171 | 1.0 | 4.0 | 0.00 | 0.00 | 0.00 | 81 | 1007.9 |
| 20260509044537 | 52 | 171 | 1.0 | 4.0 | 0.00 | 0.00 | 0.00 | 81 | 1007.9 |
| 20260509044025 | 52 | 171 | 2.0 | 4.0 | 0.00 | 0.00 | 0.00 | 80 | 1007.8 |
| 20260509043520 | 52 | 172 | 1.0 | 4.0 | 0.00 | 0.00 | 0.00 | 80 | 1007.8 |
| 20260509043045 | 53 | 172 | 2.0 | 5.0 | 0.00 | 0.00 | 0.00 | 79 | 1007.8 |
| 20260509042522 | 53 | 172 | 3.0 | 5.0 | 0.00 | 0.00 | 0.00 | 77 | 1007.8 |
| 20260509042022 | 53 | 158 | 4.0 | 5.0 | 0.00 | 0.00 | 0.00 | 76 | 1007.9 |
| 20260509041538 | 53 | 201 | 1.0 | 3.0 | 0.00 | 0.00 | 0.00 | 73 | 1007.9 |
| 20260509041021 | 54 | 0 | 0.0 | 0.0 | 0.00 | 0.00 | 0.00 | 73 | 1007.9 |
| 20260509040521 | 54 | 0 | 0.0 | 1.0 | 0.00 | 0.00 | 0.00 | 73 | 1007.8 |
| 20260509040055 | 55 | 0 | 0.0 | 3.0 | 0.00 | 0.00 | 0.00 | 73 | 1007.8 |
| 20260509035522 | 55 | 315 | 1.0 | 3.0 | 0.00 | 0.00 | 0.00 | 74 | 1007.9 |
| 20260509035022 | 55 | 0 | 0.0 | 0.0 | 0.00 | 0.00 | 0.00 | 73 | 1007.9 |
| 20260509034537 | 56 | 0 | 0.0 | 1.0 | 0.00 | 0.00 | 0.00 | 73 | 1007.8 |
| 20260509034021 | 56 | 0 | 0.0 | 2.0 | 0.00 | 0.00 | 0.00 | 73 | 1007.8 |
| 20260509033521 | 56 | 0 | 0.0 | 3.0 | 0.00 | 0.00 | 0.00 | 72 | 1007.7 |
| 20260509033054 | 56 | 0 | 1.0 | 3.0 | 0.00 | 0.00 | 0.00 | 71 | 1007.7 |
| 20260509032523 | 57 | 315 | 1.0 | 3.0 | 0.00 | 0.00 | 0.00 | 71 | 1007.7 |
| 20260509032021 | 57 | 0 | 0.0 | 0.0 | 0.00 | 0.00 | 0.00 | 71 | 1007.7 |
| 20260509031537 | 57 | 0 | 0.0 | 0.0 | 0.00 | 0.00 | 0.00 | 70 | 1007.7 |
| 20260509031022 | 58 | 0 | 0.0 | 0.0 | 0.00 | 0.00 | 0.00 | 68 | 1007.7 |
| 20260509030522 | 58 | 0 | 0.0 | 0.0 | 0.00 | 0.00 | 0.00 | 69 | 1007.6 |
| 20260509030039 | 58 | 0 | 0.0 | 3.0 | 0.00 | 0.00 | 0.00 | 68 | 1007.6 |
| 20260509025522 | 59 | 0 | 0.0 | 4.0 | 0.00 | 0.00 | 0.00 | 68 | 1007.5 |
| 20260509025021 | 59 | 88 | 2.0 | 4.0 | 0.00 | 0.00 | 0.00 | 69 | 1007.5 |
| 20260509024540 | 60 | 0 | 0.0 | 0.0 | 0.00 | 0.00 | 0.00 | 68 | 1007.4 |
| 20260509024025 | 60 | 0 | 0.0 | 0.0 | 0.00 | 0.00 | 0.00 | 66 | 1007.5 |
| 20260509023524 | 61 | 0 | 0.0 | 1.0 | 0.00 | 0.00 | 0.00 | 64 | 1007.4 |
| 20260509023037 | 62 | 0 | 0.0 | 1.0 | 0.00 | 0.00 | 0.00 | 62 | 1007.3 |
| 20260509022521 | 63 | 9 | 0.0 | 1.0 | 0.00 | 0.00 | 0.00 | 61 | 1007.3 |
| 20260509022021 | 63 | 0 | 0.0 | 0.0 | 0.00 | 0.00 | 0.00 | 58 | 1007.4 |
| 20260509021537 | 64 | 0 | 0.0 | 0.0 | 0.00 | 0.00 | 0.00 | 57 | 1007.3 |
| 20260509021023 | 65 | 0 | 0.0 | 1.0 | 0.00 | 0.00 | 0.00 | 54 | 1007.2 |
| 20260509020524 | 66 | 0 | 0.0 | 3.0 | 0.00 | 0.00 | 0.00 | 53 | 1007.1 |
| 20260509020037 | 66 | 0 | 0.0 | 4.0 | 0.00 | 0.00 | 0.00 | 52 | 1007.1 |
| 20260509015521 | 67 | 351 | 2.0 | 5.0 | 0.00 | 0.00 | 0.00 | 52 | 1007.0 |
| 20260509015023 | 67 | 333 | 2.0 | 5.0 | 0.00 | 0.00 | 0.00 | 51 | 1006.9 |
| 20260509014532 | 68 | 331 | 2.0 | 5.0 | 0.00 | 0.00 | 0.00 | 50 | 1006.7 |
| 20260509014022 | 68 | 9 | 2.0 | 4.0 | 0.00 | 0.00 | 0.00 | 50 | 1006.6 |
| 20260509013522 | 69 | 9 | 2.0 | 4.0 | 0.00 | 0.00 | 0.00 | 49 | 1006.5 |
| 20260509013038 | 69 | 10 | 2.0 | 4.0 | 0.00 | 0.00 | 0.00 | 48 | 1006.5 |
| 20260509012522 | 69 | 26 | 2.0 | 5.0 | 0.00 | 0.00 | 0.00 | 48 | 1006.5 |
| 20260509012022 | 70 | 27 | 2.0 | 5.0 | 0.00 | 0.00 | 0.00 | 48 | 1006.4 |
| 20260509011544 | 70 | 28 | 3.0 | 9.0 | 0.00 | 0.00 | 0.00 | 48 | 1006.4 |
| 20260509011022 | 71 | 24 | 2.0 | 9.0 | 0.00 | 0.00 | 0.00 | 47 | 1006.3 |
| 20260509010521 | 71 | 352 | 4.0 | 9.0 | 0.00 | 0.00 | 0.00 | 46 | 1006.3 |
| 20260509010039 | 71 | 21 | 4.0 | 8.0 | 0.00 | 0.00 | 0.00 | 47 | 1006.4 |
| 20260509005525 | 71 | 17 | 5.0 | 12.0 | 0.00 | 0.00 | 0.00 | 47 | 1006.3 |
| 20260509005022 | 72 | 19 | 4.0 | 12.0 | 0.00 | 0.00 | 0.00 | 47 | 1006.2 |
| 20260509004548 | 72 | 5 | 6.0 | 13.0 | 0.00 | 0.00 | 0.00 | 46 | 1006.1 |
| 20260509004021 | 72 | 28 | 5.0 | 14.0 | 0.00 | 0.00 | 0.00 | 46 | 1006.0 |
| 20260509003522 | 72 | 352 | 8.0 | 14.0 | 0.00 | 0.00 | 0.00 | 46 | 1005.9 |
| 20260509003040 | 73 | 351 | 6.0 | 14.0 | 0.00 | 0.00 | 0.00 | 48 | 1005.9 |
| 20260509002525 | 73 | 20 | 7.0 | 14.0 | 0.00 | 0.00 | 0.00 | 48 | 1005.8 |
| 20260509002022 | 73 | 32 | 9.0 | 14.0 | 0.00 | 0.00 | 0.00 | 47 | 1005.8 |
| 20260509001538 | 74 | 345 | 5.0 | 14.0 | 0.00 | 0.00 | 0.00 | 47 | 1005.7 |
| 20260509001021 | 74 | 53 | 7.0 | 16.0 | 0.00 | 0.00 | 0.00 | 46 | 1005.6 |
| 20260509000521 | 74 | 344 | 9.0 | 16.0 | 0.00 | 0.00 | 0.00 | 44 | 1005.6 |
| 20260509000037 | 75 | 331 | 7.0 | 15.0 | 0.00 | 0.00 | 0.00 | 44 | 1005.6 |
| 20260508235522 | 75 | 342 | 7.0 | 13.0 | 0.00 | 0.00 | 0.00 | 43 | 1005.5 |
| 20260508235023 | 76 | 5 | 8.0 | 15.0 | 0.00 | 0.00 | 0.00 | 43 | 1005.3 |
| 20260508234537 | 76 | 319 | 8.0 | 18.0 | 0.00 | 0.00 | 0.00 | 42 | 1005.3 |
| 20260508234022 | 76 | 294 | 9.0 | 18.0 | 0.00 | 0.00 | 0.00 | 42 | 1005.2 |
| 20260508233525 | 76 | 9 | 10.0 | 18.0 | 0.00 | 0.00 | 0.00 | 44 | 1005.1 |
| 20260508233038 | 76 | 5 | 9.0 | 22.0 | 0.00 | 0.00 | 0.00 | 46 | 1005.2 |
| 20260508232522 | 76 | 12 | 14.0 | 22.0 | 0.00 | 0.00 | 0.00 | 46 | 1005.2 |
| 20260508232022 | 77 | 30 | 10.0 | 21.0 | 0.00 | 0.00 | 0.00 | 45 | 1005.0 |
| 20260508231538 | 77 | 360 | 8.0 | 16.0 | 0.00 | 0.00 | 0.00 | 46 | 1005.0 |
| 20260508231022 | 77 | 297 | 9.0 | 15.0 | 0.00 | 0.00 | 0.00 | 45 | 1005.0 |
| 20260508230521 | 77 | 23 | 7.0 | 17.0 | 0.00 | 0.00 | 0.00 | 44 | 1005.0 |
| 20260508230042 | 77 | 306 | 9.0 | 21.0 | 0.00 | 0.00 | 0.00 | 43 | 1005.0 |
| 20260508225525 | 77 | 22 | 10.0 | 21.0 | 0.00 | 0.00 | 0.00 | 43 | 1005.0 |
| 20260508225021 | 77 | 5 | 6.0 | 14.0 | 0.00 | 0.00 | 0.00 | 42 | 1005.1 |
| 20260508224549 | 78 | 316 | 8.0 | 14.0 | 0.00 | 0.00 | 0.00 | 41 | 1005.0 |
| 20260508224025 | 78 | 292 | 8.0 | 14.0 | 0.00 | 0.00 | 0.00 | 40 | 1005.1 |
| 20260508223524 | 78 | 17 | 8.0 | 13.0 | 0.00 | 0.00 | 0.00 | 41 | 1004.9 |
| 20260508223037 | 78 | 14 | 6.0 | 17.0 | 0.00 | 0.00 | 0.00 | 40 | 1004.9 |
| 20260508222523 | 78 | 292 | 8.0 | 18.0 | 0.00 | 0.00 | 0.00 | 41 | 1004.9 |
| 20260508222022 | 78 | 305 | 10.0 | 18.0 | 0.00 | 0.00 | 0.00 | 42 | 1004.9 |
| 20260508221537 | 78 | 257 | 7.0 | 13.0 | 0.00 | 0.00 | 0.00 | 43 | 1004.8 |
| 20260508221021 | 78 | 306 | 6.0 | 15.0 | 0.00 | 0.00 | 0.00 | 45 | 1004.8 |
| 20260508220521 | 78 | 303 | 9.0 | 15.0 | 0.00 | 0.00 | 0.00 | 42 | 1004.9 |
| 20260508220046 | 78 | 22 | 7.0 | 13.0 | 0.00 | 0.00 | 0.00 | 45 | 1005.0 |
| 20260508215527 | 78 | 322 | 4.0 | 15.0 | 0.00 | 0.00 | 0.00 | 45 | 1004.9 |
| 20260508215022 | 78 | 290 | 7.0 | 15.0 | 0.00 | 0.00 | 0.00 | 46 | 1004.9 |
| 20260508214543 | 77 | 311 | 7.0 | 15.0 | 0.00 | 0.00 | 0.00 | 47 | 1004.8 |
| 20260508214021 | 77 | 325 | 9.0 | 15.0 | 0.00 | 0.00 | 0.00 | 45 | 1004.8 |
| 20260508213522 | 77 | 311 | 9.0 | 13.0 | 0.00 | 0.00 | 0.00 | 45 | 1004.8 |
| 20260508213039 | 76 | 331 | 6.0 | 13.0 | 0.00 | 0.00 | 0.00 | 47 | 1004.6 |
| 20260508212522 | 76 | 313 | 2.0 | 11.0 | 0.00 | 0.00 | 0.00 | 48 | 1004.6 |
| 20260508212023 | 75 | 325 | 4.0 | 12.0 | 0.00 | 0.00 | 0.00 | 49 | 1004.6 |
| 20260508211540 | 74 | 313 | 5.0 | 12.0 | 0.00 | 0.00 | 0.00 | 50 | 1004.7 |
| 20260508211022 | 74 | 294 | 6.0 | 13.0 | 0.00 | 0.00 | 0.00 | 50 | 1004.6 |
| 20260508210522 | 74 | 360 | 7.0 | 13.0 | 0.00 | 0.00 | 0.00 | 49 | 1004.7 |
| 20260508210040 | 73 | 306 | 7.0 | 13.0 | 0.00 | 0.00 | 0.00 | 49 | 1004.7 |
| 20260508205521 | 73 | 279 | 6.0 | 13.0 | 0.00 | 0.00 | 0.00 | 50 | 1004.9 |
| 20260508205021 | 73 | 232 | 5.0 | 11.0 | 0.00 | 0.00 | 0.00 | 50 | 1005.3 |
| 20260508204539 | 73 | 256 | 7.0 | 14.0 | 0.00 | 0.00 | 0.00 | 52 | 1005.4 |
| 20260508204021 | 73 | 238 | 4.0 | 16.0 | 0.00 | 0.00 | 0.00 | 51 | 1005.1 |
| 20260508203522 | 73 | 257 | 10.0 | 16.0 | 0.00 | 0.00 | 0.00 | 51 | 1004.9 |
| 20260508203040 | 73 | 277 | 7.0 | 16.0 | 0.00 | 0.00 | 0.00 | 53 | 1005.0 |
| 20260508202523 | 73 | 282 | 8.0 | 13.0 | 0.00 | 0.00 | 0.00 | 52 | 1005.1 |
| 20260508202022 | 72 | 299 | 6.0 | 13.0 | 0.00 | 0.00 | 0.00 | 53 | 1004.9 |
| 20260508201540 | 72 | 280 | 7.0 | 12.0 | 0.00 | 0.00 | 0.00 | 53 | 1005.0 |
| 20260508201022 | 72 | 287 | 5.0 | 12.0 | 0.00 | 0.00 | 0.00 | 52 | 1005.2 |
| 20260508200522 | 72 | 274 | 7.0 | 13.0 | 0.00 | 0.00 | 0.00 | 51 | 1005.5 |
| 20260508200039 | 73 | 286 | 7.0 | 15.0 | 0.00 | 0.00 | 0.00 | 51 | 1005.4 |
| 20260508195521 | 73 | 301 | 8.0 | 15.0 | 0.00 | 0.00 | 0.00 | 50 | 1005.3 |
| 20260508195022 | 74 | 308 | 7.0 | 14.0 | 0.00 | 0.00 | 0.00 | 51 | 1005.3 |
| 20260508194546 | 74 | 336 | 8.0 | 14.0 | 0.00 | 0.00 | 0.00 | 51 | 1005.6 |
| 20260508194022 | 74 | 250 | 9.0 | 14.0 | 0.00 | 0.00 | 0.00 | 50 | 1005.5 |
| 20260508193521 | 74 | 286 | 5.0 | 14.0 | 0.00 | 0.00 | 0.00 | 50 | 1005.5 |
| 20260508193039 | 74 | 238 | 6.0 | 11.0 | 0.00 | 0.00 | 0.00 | 51 | 1005.6 |
| 20260508192522 | 74 | 244 | 4.0 | 11.0 | 0.00 | 0.00 | 0.00 | 51 | 1005.2 |
| 20260508192022 | 74 | 229 | 5.0 | 11.0 | 0.00 | 0.00 | 0.00 | 50 | 1005.3 |
| 20260508191545 | 75 | 257 | 5.0 | 10.0 | 0.00 | 0.00 | 0.00 | 48 | 1005.4 |
| 20260508191022 | 75 | 261 | 4.0 | 10.0 | 0.00 | 0.00 | 0.00 | 48 | 1005.3 |
| 20260508190522 | 75 | 257 | 4.0 | 17.0 | 0.00 | 0.00 | 0.00 | 49 | 1005.1 |
| 20260508190100 | 75 | 206 | 5.0 | 17.0 | 0.00 | 0.00 | 0.00 | 48 | 1005.1 |
| 20260508185522 | 76 | 237 | 8.0 | 17.0 | 0.00 | 0.00 | 0.00 | 45 | 1005.6 |
| 20260508185025 | 76 | 287 | 8.0 | 14.0 | 0.00 | 0.00 | 0.00 | 44 | 1005.5 |
| 20260508184541 | 77 | 238 | 8.0 | 16.0 | 0.00 | 0.00 | 0.00 | 44 | 1005.4 |
| 20260508184022 | 78 | 232 | 9.0 | 18.0 | 0.00 | 0.00 | 0.00 | 43 | 1005.9 |
| 20260508183521 | 78 | 257 | 11.0 | 19.0 | 0.00 | 0.00 | 0.00 | 42 | 1005.7 |
| 20260508183042 | 79 | 225 | 10.0 | 19.0 | 0.00 | 0.00 | 0.00 | 43 | 1005.8 |
| 20260508182521 | 79 | 249 | 8.0 | 20.0 | 0.00 | 0.00 | 0.00 | 43 | 1006.1 |
| 20260508182021 | 78 | 295 | 8.0 | 20.0 | 0.00 | 0.00 | 0.00 | 45 | 1006.1 |
| 20260508181544 | 77 | 242 | 12.0 | 20.0 | 0.00 | 0.00 | 0.00 | 44 | 1006.4 |
| 20260508181021 | 76 | 239 | 11.0 | 19.0 | 0.00 | 0.00 | 0.00 | 49 | 1006.4 |
| 20260508180524 | 75 | 272 | 11.0 | 19.0 | 0.00 | 0.00 | 0.00 | 48 | 1006.4 |
| 20260508180038 | 75 | 249 | 10.0 | 19.0 | 0.00 | 0.00 | 0.00 | 47 | 1006.5 |
| 20260508175522 | 75 | 269 | 11.0 | 21.0 | 0.00 | 0.00 | 0.00 | 46 | 1006.5 |
| 20260508175024 | 76 | 243 | 10.0 | 21.0 | 0.00 | 0.00 | 0.00 | 47 | 1006.7 |
| 20260508174541 | 76 | 269 | 11.0 | 25.0 | 0.00 | 0.00 | 0.00 | 47 | 1006.5 |
| 20260508174022 | 75 | 231 | 14.0 | 25.0 | 0.00 | 0.00 | 0.00 | 47 | 1006.6 |
| 20260508173521 | 75 | 246 | 10.0 | 19.0 | 0.00 | 0.00 | 0.00 | 48 | 1006.5 |
| 20260508173038 | 75 | 239 | 8.0 | 19.0 | 0.00 | 0.00 | 0.00 | 48 | 1006.5 |
| 20260508172525 | 75 | 231 | 9.0 | 18.0 | 0.00 | 0.00 | 0.00 | 48 | 1006.4 |
| 20260508172022 | 75 | 244 | 7.0 | 20.0 | 0.00 | 0.00 | 0.00 | 48 | 1006.5 |
| 20260508171544 | 76 | 254 | 8.0 | 20.0 | 0.00 | 0.00 | 0.00 | 47 | 1006.5 |
| 20260508171021 | 76 | 259 | 12.0 | 19.0 | 0.00 | 0.00 | 0.00 | 48 | 1006.5 |
| 20260508170521 | 76 | 223 | 11.0 | 19.0 | 0.00 | 0.00 | 0.00 | 47 | 1006.5 |
| 20260508170037 | 75 | 254 | 8.0 | 19.0 | 0.00 | 0.00 | 0.00 | 49 | 1006.5 |
| 20260508165521 | 75 | 221 | 10.0 | 19.0 | 0.00 | 0.00 | 0.00 | 50 | 1006.6 |
| 20260508165021 | 74 | 196 | 8.0 | 18.0 | 0.00 | 0.00 | 0.00 | 51 | 1006.6 |
| 20260508164537 | 73 | 220 | 7.0 | 14.0 | 0.00 | 0.00 | 0.00 | 50 | 1006.6 |
| 20260508164022 | 73 | 224 | 7.0 | 16.0 | 0.00 | 0.00 | 0.00 | 52 | 1006.8 |
| 20260508163522 | 73 | 247 | 10.0 | 20.0 | 0.00 | 0.00 | 0.00 | 51 | 1006.7 |
| 20260508163050 | 74 | 191 | 9.0 | 20.0 | 0.00 | 0.00 | 0.00 | 50 | 1006.9 |
| 20260508162525 | 74 | 204 | 9.0 | 20.0 | 0.00 | 0.00 | 0.00 | 50 | 1007.0 |
| 20260508162021 | 74 | 188 | 9.0 | 16.0 | 0.00 | 0.00 | 0.00 | 49 | 1007.0 |
| 20260508161552 | 75 | 187 | 7.0 | 16.0 | 0.00 | 0.00 | 0.00 | 51 | 1006.9 |
| 20260508161022 | 73 | 231 | 8.0 | 16.0 | 0.00 | 0.00 | 0.00 | 52 | 1006.9 |
| 20260508160525 | 73 | 225 | 10.0 | 17.0 | 0.00 | 0.00 | 0.00 | 52 | 1006.9 |
| 20260508160039 | 73 | 248 | 9.0 | 17.0 | 0.00 | 0.00 | 0.00 | 53 | 1007.1 |
| 20260508155522 | 73 | 178 | 6.0 | 16.0 | 0.00 | 0.00 | 0.00 | 54 | 1007.2 |
| 20260508155023 | 72 | 240 | 9.0 | 19.0 | 0.00 | 0.00 | 0.00 | 54 | 1007.2 |
| 20260508154538 | 72 | 237 | 8.0 | 19.0 | 0.00 | 0.00 | 0.00 | 55 | 1007.3 |
| 20260508154024 | 72 | 225 | 8.0 | 19.0 | 0.00 | 0.00 | 0.00 | 55 | 1007.4 |
| 20260508153522 | 71 | 223 | 8.0 | 18.0 | 0.00 | 0.00 | 0.00 | 55 | 1007.4 |
| 20260508153052 | 72 | 234 | 11.0 | 18.0 | 0.00 | 0.00 | 0.00 | 54 | 1007.4 |
| 20260508152521 | 72 | 209 | 8.0 | 18.0 | 0.00 | 0.00 | 0.00 | 56 | 1007.3 |
| 20260508152022 | 71 | 240 | 9.0 | 16.0 | 0.00 | 0.00 | 0.00 | 57 | 1007.3 |
| 20260508151538 | 70 | 234 | 8.0 | 16.0 | 0.00 | 0.00 | 0.00 | 59 | 1007.5 |
| 20260508151025 | 69 | 180 | 7.0 | 20.0 | 0.00 | 0.00 | 0.00 | 59 | 1007.6 |
| 20260508150522 | 69 | 232 | 10.0 | 20.0 | 0.00 | 0.00 | 0.00 | 58 | 1007.7 |
| 20260508150037 | 69 | 273 | 6.0 | 20.0 | 0.00 | 0.00 | 0.00 | 58 | 1007.7 |
| 20260508145521 | 69 | 242 | 11.0 | 20.0 | 0.00 | 0.00 | 0.00 | 58 | 1007.8 |
| 20260508145023 | 69 | 202 | 8.0 | 22.0 | 0.00 | 0.00 | 0.00 | 58 | 1007.8 |
| 20260508144537 | 69 | 267 | 11.0 | 22.0 | 0.00 | 0.00 | 0.00 | 58 | 1007.8 |
| 20260508144023 | 69 | 215 | 9.0 | 19.0 | 0.00 | 0.00 | 0.00 | 59 | 1007.8 |
| 20260508143524 | 68 | 263 | 7.0 | 22.0 | 0.00 | 0.00 | 0.00 | 60 | 1008.0 |
| 20260508143057 | 68 | 224 | 11.0 | 22.0 | 0.00 | 0.00 | 0.00 | 61 | 1008.1 |
| 20260508142522 | 67 | 204 | 10.0 | 19.0 | 0.00 | 0.00 | 0.00 | 61 | 1008.1 |
| 20260508142023 | 67 | 237 | 8.0 | 21.0 | 0.00 | 0.00 | 0.00 | 62 | 1008.0 |
| 20260508141540 | 67 | 224 | 9.0 | 23.0 | 0.00 | 0.00 | 0.00 | 63 | 1008.0 |
| 20260508141022 | 66 | 273 | 11.0 | 23.0 | 0.00 | 0.00 | 0.00 | 64 | 1008.0 |
| 20260508140522 | 65 | 225 | 8.0 | 22.0 | 0.00 | 0.00 | 0.00 | 66 | 1008.0 |
| 20260508140039 | 64 | 220 | 9.0 | 16.0 | 0.00 | 0.00 | 0.00 | 67 | 1008.2 |
| 20260508135523 | 64 | 257 | 7.0 | 15.0 | 0.00 | 0.00 | 0.00 | 67 | 1008.3 |
| 20260508135022 | 63 | 189 | 8.0 | 16.0 | 0.00 | 0.00 | 0.00 | 68 | 1008.1 |
| 20260508134539 | 63 | 245 | 6.0 | 16.0 | 0.00 | 0.00 | 0.00 | 69 | 1008.0 |
| 20260508134023 | 62 | 213 | 5.0 | 17.0 | 0.00 | 0.00 | 0.00 | 72 | 1008.0 |
| 20260508133522 | 61 | 207 | 9.0 | 17.0 | 0.00 | 0.00 | 0.00 | 72 | 1008.0 |
| 20260508133037 | 60 | 219 | 7.0 | 17.0 | 0.00 | 0.00 | 0.00 | 73 | 1008.0 |
| 20260508132522 | 59 | 200 | 8.0 | 17.0 | 0.00 | 0.00 | 0.00 | 75 | 1008.0 |
| 20260508132022 | 58 | 209 | 7.0 | 12.0 | 0.00 | 0.00 | 0.00 | 77 | 1007.9 |
| 20260508131537 | 57 | 204 | 6.0 | 13.0 | 0.00 | 0.00 | 0.00 | 79 | 1008.0 |
| 20260508131026 | 56 | 208 | 5.0 | 13.0 | 0.00 | 0.00 | 0.00 | 80 | 1008.1 |
| 20260508130522 | 55 | 221 | 5.0 | 10.0 | 0.00 | 0.00 | 0.00 | 80 | 1008.0 |
| 20260508130042 | 55 | 194 | 6.0 | 11.0 | 0.00 | 0.00 | 0.00 | 80 | 1007.8 |
| 20260508125522 | 54 | 188 | 5.0 | 11.0 | 0.00 | 0.00 | 0.00 | 81 | 1007.9 |
| 20260508125022 | 53 | 184 | 6.0 | 10.0 | 0.00 | 0.00 | 0.00 | 82 | 1007.9 |
| 20260508124537 | 53 | 180 | 5.0 | 10.0 | 0.00 | 0.00 | 0.00 | 83 | 1007.9 |
| 20260508124021 | 52 | 169 | 5.0 | 9.0 | 0.00 | 0.00 | 0.00 | 83 | 1008.0 |
| 20260508123521 | 52 | 174 | 5.0 | 8.0 | 0.00 | 0.00 | 0.00 | 83 | 1008.0 |
| 20260508123042 | 51 | 210 | 3.0 | 7.0 | 0.00 | 0.00 | 0.00 | 83 | 1008.0 |
| 20260508122547 | 51 | 186 | 4.0 | 8.0 | 0.00 | 0.00 | 0.00 | 83 | 1007.9 |
| 20260508122022 | 51 | 165 | 5.0 | 8.0 | 0.00 | 0.00 | 0.00 | 83 | 1007.8 |
| 20260508121537 | 50 | 173 | 4.0 | 7.0 | 0.00 | 0.00 | 0.00 | 83 | 1007.8 |
| 20260508121022 | 50 | 162 | 4.0 | 6.0 | 0.00 | 0.00 | 0.00 | 83 | 1007.8 |
| 20260508120524 | 50 | 191 | 4.0 | 7.0 | 0.00 | 0.00 | 0.00 | 82 | 1007.8 |
| 20260508120037 | 50 | 186 | 4.0 | 8.0 | 0.00 | 0.00 | 0.00 | 82 | 1007.8 |
| 20260508115522 | 50 | 180 | 5.0 | 8.0 | 0.00 | 0.00 | 0.00 | 82 | 1007.9 |
| 20260508115022 | 50 | 209 | 4.0 | 8.0 | 0.00 | 0.00 | 0.00 | 81 | 1007.9 |
| 20260508114537 | 50 | 178 | 4.0 | 10.0 | 0.00 | 0.00 | 0.00 | 81 | 1007.9 |
| 20260508114022 | 50 | 180 | 5.0 | 10.0 | 0.00 | 0.00 | 0.00 | 80 | 1007.9 |
| 20260508113522 | 50 | 181 | 5.0 | 8.0 | 0.00 | 0.00 | 0.00 | 79 | 1007.9 |
| 20260508113038 | 50 | 165 | 5.0 | 8.0 | 0.00 | 0.00 | 0.00 | 79 | 1007.8 |
| 20260508112524 | 50 | 190 | 5.0 | 8.0 | 0.00 | 0.00 | 0.00 | 78 | 1007.8 |
| 20260508112022 | 50 | 156 | 5.0 | 7.0 | 0.00 | 0.00 | 0.00 | 78 | 1007.8 |
| 20260508111541 | 50 | 161 | 5.0 | 7.0 | 0.00 | 0.00 | 0.00 | 78 | 1007.9 |
| 20260508111024 | 50 | 164 | 4.0 | 6.0 | 0.00 | 0.00 | 0.00 | 78 | 1007.9 |
| 20260508110521 | 50 | 164 | 4.0 | 6.0 | 0.00 | 0.00 | 0.00 | 78 | 1007.9 |
| 20260508110038 | 50 | 165 | 4.0 | 5.0 | 0.00 | 0.00 | 0.00 | 78 | 1007.9 |
| 20260508105521 | 50 | 175 | 3.0 | 6.0 | 0.00 | 0.00 | 0.00 | 78 | 1008.0 |
| 20260508105024 | 50 | 174 | 3.0 | 6.0 | 0.00 | 0.00 | 0.00 | 78 | 1008.0 |
| 20260508104538 | 50 | 180 | 4.0 | 7.0 | 0.00 | 0.00 | 0.00 | 78 | 1007.8 |
| 20260508104022 | 50 | 186 | 3.0 | 7.0 | 0.00 | 0.00 | 0.00 | 78 | 1007.7 |
| 20260508103522 | 50 | 190 | 4.0 | 8.0 | 0.00 | 0.00 | 0.00 | 78 | 1007.7 |
| 20260508103045 | 50 | 209 | 5.0 | 9.0 | 0.00 | 0.00 | 0.00 | 77 | 1007.8 |
| 20260508102523 | 50 | 210 | 4.0 | 9.0 | 0.00 | 0.00 | 0.00 | 77 | 1007.7 |
| 20260508102024 | 50 | 234 | 2.0 | 7.0 | 0.00 | 0.00 | 0.00 | 77 | 1007.8 |
| 20260508101536 | 50 | 178 | 4.0 | 7.0 | 0.00 | 0.00 | 0.00 | 76 | 1007.6 |
| 20260508101022 | 50 | 195 | 5.0 | 7.0 | 0.00 | 0.00 | 0.00 | 75 | 1007.5 |
| 20260508100523 | 50 | 175 | 4.0 | 6.0 | 0.00 | 0.00 | 0.00 | 75 | 1007.6 |
| 20260508100057 | 50 | 194 | 4.0 | 8.0 | 0.00 | 0.00 | 0.00 | 75 | 1007.6 |
| 20260508095527 | 50 | 178 | 4.0 | 8.0 | 0.00 | 0.00 | 0.00 | 74 | 1007.6 |